QPF
0.00 0.00 0.00 0.00 0.01 0.01 0.02 0.03 0.02 0.03 0.02 0.01 0.00 0.00 0.00 0.00 0.00 0.00 0.00 0.00 0.00 0.00 0.00 0.00 0.00 0.00 0.00 0.00 0.00 0.00 0.00 0.00 0.00 0.00 0.00 0.00 0.00 0.00 0.00 0.00 0.00 0.00 0.00
0.00 0.00 0.00 0.00 0.00 0.00 0.01 0.02 0.02 0.03 0.03 0.01 0.00 0.00 0.00 0.00 0.00 0.00 0.00 0.00 0.00 0.00 0.00 0.00 0.00 0.00 0.00 0.00 0.00 0.00 0.00 0.00 0.00 0.00 0.00 0.00 0.00 0.00 0.00 0.00 0.00 0.00 0.00
0.00 0.00 0.00 0.00 0.00 0.00 0.00 0.02 0.05 0.10 0.08 0.07 0.02 0.00 0.00 0.00 0.00 0.00 0.00 0.00 0.00 0.00 0.00 0.00 0.00 0.00 0.00 0.00 0.00 0.00 0.00 0.00 0.00 0.00 0.00 0.00 0.00 0.00 0.00 0.00 0.00 0.00 0.00
0.00 0.00 0.00 0.00 0.00 0.00 0.00 0.00 0.01 0.02 0.02 0.03 0.03 0.02 0.01 0.00 0.00 0.00 0.00 0.00 0.00 0.00 0.00 0.00 0.01 0.00 0.00 0.00 0.00 0.00 0.00 0.00 0.00 0.00 0.00 0.00 0.00 0.00 0.00 0.00 0.00 0.00 0.00
0.00 0.00 0.00 0.00 0.00 0.00 0.00 0.00 0.00 0.01 0.01 0.02 0.03 0.03 0.03 0.01 0.00 0.00 0.00 0.00 0.00 0.00 0.00 0.00 0.01 0.01 0.00 0.00 0.00 0.00 0.00 0.00 0.00 0.00 0.00 0.00 0.00 0.00 0.00 0.00 0.00 0.00 0.00
0.00 0.00 0.00 0.00 0.00 0.00 0.00 0.00 0.00 0.00 0.01 0.01 0.02 0.03 0.02 0.02 0.02 0.02 0.00 0.00 0.00 0.00 0.00 0.00 0.00 0.00 0.00 0.00 0.00 0.00 0.00 0.00 0.00 0.00 0.00 0.00 0.00 0.00 0.00 0.00 0.00 0.00 0.00
0.00 0.00 0.00 0.00 0.00 0.00 0.00 0.00 0.00 0.00 0.00 0.00 0.00 0.01 0.02 0.03 0.02 0.04 0.02 0.01 0.02 0.05 0.04 0.03 0.01 0.00 0.00 0.00 0.00 0.00 0.00 0.00 0.00 0.00 0.00 0.00 0.00 0.00 0.00 0.00 0.00 0.00 0.00
0.00 0.00 0.00 0.00 0.00 0.00 0.00 0.00 0.00 0.00 0.00 0.00 0.00 0.00 0.00 0.01 0.01 0.02 0.01 0.01 0.04 0.04 0.05 0.04 0.04 0.02 0.01 0.01 0.01 0.00 0.00 0.00 0.00 0.00 0.00 0.00 0.00 0.00 0.00 0.00 0.00 0.00 0.00
0.00 0.00 0.00 0.00 0.00 0.00 0.00 0.00 0.00 0.00 0.00 0.00 0.00 0.00 0.00 0.00 0.00 0.00 0.01 0.00 0.00 0.01 0.01 0.04 0.08 0.07 0.06 0.03 0.02 0.02 0.01 0.00 0.00 0.00 0.00 0.00 0.00 0.01 0.00 0.00 0.00 0.00 0.00
0.00 0.00 0.00 0.00 0.00 0.00 0.00 0.00 0.00 0.00 0.00 0.00 0.00 0.00 0.00 0.00 0.00 0.00 0.00 0.01 0.01 0.01 0.01 0.01 0.02 0.04 0.07 0.09 0.05 0.03 0.01 0.00 0.00 0.00 0.00 0.00 0.00 0.00 0.00 0.00 0.00 0.00 0.00
0.00 0.00 0.00 0.00 0.00 0.00 0.02 0.02 0.01 0.00 0.00 0.00 0.00 0.00 0.00 0.00 0.01 0.00 0.01 0.02 0.04 0.03 0.01 0.00 0.00 0.01 0.02 0.04 0.05 0.04 0.01 0.01 0.01 0.01 0.00 0.00 0.00 0.00 0.00 0.00 0.00 0.00 0.00
0.00 0.00 0.00 0.00 0.00 0.00 0.05 0.05 0.02 0.00 0.00 0.00 0.00 0.00 0.00 0.00 0.00 0.00 0.00 0.01 0.03 0.03 0.05 0.07 0.05 0.02 0.01 0.01 0.01 0.01 0.02 0.02 0.04 0.04 0.01 0.00 0.00 0.02 0.02 0.01 0.00 0.00 0.00
0.00 0.00 0.00 0.00 0.00 0.01 0.06 0.07 0.06 0.01 0.00 0.00 0.00 0.00 0.00 0.00 0.00 0.00 0.00 0.00 0.01 0.02 0.02 0.07 0.06 0.06 0.02 0.00 0.00 0.00 0.00 0.01 0.01 0.02 0.02 0.02 0.01 0.01 0.01 0.00 0.00 0.00 0.00
0.01 0.01 0.00 0.00 0.00 0.01 0.07 0.09 0.05 0.00 0.00 0.00 0.00 0.00 0.00 0.00 0.00 0.00 0.00 0.02 0.04 0.05 0.04 0.01 0.01 0.01 0.00 0.00 0.00 0.00 0.00 0.00 0.00 0.00 0.01 0.01 0.01 0.00 0.00 0.00 0.00 0.00 0.00
0.02 0.02 0.01 0.00 0.01 0.04 0.09 0.13 0.10 0.04 0.02 0.00 0.00 0.00 0.00 0.00 0.00 0.00 0.00 0.00 0.04 0.07 0.06 0.02 0.01 0.02 0.03 0.03 0.01 0.00 0.00 0.00 0.00 0.00 0.00 0.00 0.00 0.00 0.00 0.00 0.00 0.00 0.00
0.03 0.03 0.03 0.04 0.05 0.07 0.11 0.10 0.08 0.03 0.01 0.00 0.00 0.00 0.00 0.00 0.00 0.00 0.00 0.00 0.01 0.05 0.10 0.06 0.04 0.06 0.06 0.04 0.04 0.03 0.01 0.00 0.00 0.00 0.00 0.00 0.00 0.00 0.00 0.00 0.00 0.00 0.00
0.04 0.04 0.05 0.05 0.06 0.09 0.08 0.07 0.05 0.02 0.01 0.00 0.00 0.00 0.00 0.00 0.00 0.00 0.00 0.00 0.00 0.01 0.03 0.04 0.04 0.05 0.04 0.02 0.02 0.04 0.03 0.01 0.01 0.01 0.02 0.01 0.01 0.00 0.00 0.00 0.00 0.00 0.00
0.03 0.03 0.03 0.05 0.09 0.09 0.08 0.07 0.03 0.02 0.03 0.02 0.00 0.00 0.00 0.00 0.00 0.00 0.00 0.00 0.00 0.00 0.01 0.01 0.02 0.02 0.02 0.02 0.00 0.01 0.01 0.00 0.01 0.01 0.01 0.01 0.01 0.00 0.00 0.00 0.00 0.00 0.00
0.01 0.03 0.06 0.11 0.14 0.10 0.08 0.08 0.06 0.02 0.04 0.06 0.02 0.00 0.00 0.00 0.00 0.00 0.00 0.00 0.00 0.00 0.00 0.00 0.01 0.01 0.00 0.01 0.00 0.00 0.00 0.00 0.00 0.00 0.00 0.00 0.01 0.01 0.00 0.00 0.00 0.00 0.00
0.03 0.02 0.01 0.03 0.08 0.06 0.05 0.07 0.08 0.05 0.05 0.06 0.03 0.01 0.00 0.00 0.00 0.00 0.00 0.01 0.01 0.00 0.00 0.00 0.00 0.00 0.00 0.00 0.00 0.00 0.00 0.00 0.00 0.00 0.00 0.00 0.00 0.00 0.00 0.00 0.00 0.00 0.00
0.04 0.04 0.02 0.01 0.03 0.04 0.02 0.04 0.09 0.09 0.07 0.05 0.01 0.00 0.00 0.00 0.00 0.00 0.00 0.00 0.01 0.01 0.00 0.00 0.00 0.00 0.00 0.00 0.00 0.00 0.00 0.00 0.00 0.00 0.00 0.00 0.00 0.00 0.00 0.00 0.00 0.00 0.00
0.01 0.03 0.03 0.03 0.01 0.03 0.04 0.02 0.03 0.07 0.06 0.02 0.00 0.00 0.00 0.00 0.00 0.00 0.00 0.00 0.00 0.00 0.00 0.00 0.01 0.00 0.00 0.00 0.00 0.00 0.00 0.00 0.00 0.00 0.00 0.00 0.00 0.00 0.00 0.00 0.00 0.00 0.00
0.00 0.00 0.02 0.03 0.02 0.01 0.03 0.05 0.07 0.07 0.03 0.00 0.00 0.00 0.00 0.00 0.00 0.00 0.00 0.00 0.00 0.00 0.00 0.00 0.00 0.00 0.00 0.00 0.00 0.00 0.00 0.00 0.00 0.00 0.00 0.00 0.00 0.00 0.00 0.00 0.00 0.00 0.00
0.01 0.00 0.00 0.03 0.04 0.04 0.08 0.04 0.01 0.00 0.00 0.00 0.00 0.00 0.00 0.00 0.00 0.00 0.00 0.00 0.00 0.00 0.00 0.00 0.00 0.00 0.00 0.00 0.00 0.00 0.00 0.00 0.00 0.00 0.00 0.00 0.00 0.00 0.00 0.00 0.00 0.00 0.00
0.02 0.00 0.01 0.05 0.04 0.02 0.01 0.00 0.00 0.00 0.00 0.00 0.00 0.00 0.00 0.00 0.00 0.00 0.01 0.01 0.00 0.00 0.00 0.00 0.00 0.00 0.00 0.00 0.00 0.00 0.00 0.00 0.00 0.00 0.00 0.00 0.00 0.00 0.00 0.00 0.00 0.00 0.00
0.01 0.01 0.00 0.00 0.00 0.00 0.00 0.00 0.00 0.00 0.00 0.00 0.00 0.00 0.00 0.00 0.00 0.01 0.01 0.01 0.01 0.00 0.00 0.00 0.00 0.00 0.00 0.00 0.00 0.00 0.00 0.00 0.00 0.00 0.00 0.00 0.00 0.00 0.00 0.00 0.00 0.00 0.00
MSLP
1010.33 1010.28 1010.27 1010.10 1009.90 1010.10 1010.00 1009.93 1009.85 1009.70 1009.78 1009.93 1010.31 1010.61 1010.85 1011.12 1011.38 1011.52 1011.69 1011.86 1011.77 1011.66 1011.09 1010.73 1011.05 1011.35 1012.23 1012.12 1012.53 1012.46 1012.28 1012.46 1012.20 1011.72 1012.33 1013.69 1014.38 1014.79 1015.01 1015.13 1015.25 1015.07 1015.13
1010.38 1010.31 1010.43 1010.40 1010.17 1009.98 1010.25 1009.84 1010.02 1009.85 1009.81 1009.87 1010.17 1010.55 1010.61 1010.89 1011.23 1011.53 1011.43 1011.33 1011.53 1011.31 1011.09 1010.93 1011.11 1011.12 1011.51 1011.95 1011.98 1012.11 1012.00 1012.03 1012.27 1012.15 1012.74 1013.62 1014.52 1014.68 1014.95 1015.02 1014.93 1014.47 1014.57
1010.94 1010.54 1010.42 1010.62 1010.36 1010.18 1009.93 1009.94 1009.89 1010.08 1010.23 1010.31 1010.42 1010.29 1010.37 1010.27 1010.31 1010.69 1010.75 1010.93 1010.86 1011.09 1011.17 1011.12 1010.94 1011.02 1011.06 1011.75 1011.98 1011.91 1011.95 1012.19 1012.59 1012.31 1012.74 1013.54 1013.87 1014.34 1014.79 1014.82 1014.62 1014.50 1014.45
1011.54 1011.13 1010.55 1010.71 1010.65 1010.43 1010.13 1009.89 1009.51 1009.99 1010.20 1010.31 1010.19 1009.82 1009.63 1009.49 1009.80 1010.19 1010.32 1010.58 1010.62 1010.51 1011.02 1011.32 1011.14 1011.12 1010.78 1011.61 1011.96 1012.25 1011.71 1011.80 1012.51 1012.67 1012.57 1013.17 1013.61 1013.89 1014.01 1013.91 1013.87 1013.97 1013.48
1011.75 1011.38 1010.96 1010.32 1010.54 1010.57 1010.54 1010.26 1010.02 1009.54 1009.69 1009.99 1010.07 1009.76 1009.45 1009.37 1009.52 1010.01 1010.12 1010.22 1010.27 1010.48 1010.35 1010.57 1010.75 1011.35 1010.94 1010.98 1011.43 1011.76 1011.69 1011.94 1011.96 1012.50 1012.25 1012.52 1012.93 1013.26 1013.42 1013.10 1013.23 1013.10 1013.29
1011.81 1011.31 1011.00 1010.59 1010.32 1010.58 1010.55 1010.29 1010.12 1009.90 1009.51 1009.35 1009.63 1009.71 1009.65 1009.71 1009.53 1009.89 1010.29 1009.98 1009.92 1010.09 1010.14 1010.19 1010.53 1010.74 1011.14 1010.89 1011.27 1010.98 1011.19 1011.69 1011.79 1011.67 1011.75 1011.68 1012.14 1012.46 1012.81 1012.98 1012.95 1012.92 1012.80
1011.76 1011.25 1010.81 1010.34 1010.05 1010.40 1010.28 1010.19 1009.97 1009.96 1009.89 1009.51 1009.26 1009.26 1009.52 1009.56 1009.78 1009.94 1010.15 1010.37 1010.09 1009.65 1009.57 1009.55 1009.74 1009.81 1010.64 1010.75 1010.87 1011.28 1011.17 1011.33 1011.68 1011.86 1011.76 1011.78 1011.78 1012.00 1012.70 1013.22 1013.29 1013.22 1013.22
1011.76 1011.24 1010.76 1010.33 1009.81 1009.67 1010.17 1010.35 1010.15 1009.97 1009.67 1009.28 1009.04 1008.87 1008.96 1008.81 1009.18 1009.61 1009.68 1009.67 1009.24 1008.89 1008.80 1008.85 1009.19 1009.38 1009.90 1010.36 1010.49 1011.18 1011.24 1011.52 1011.25 1011.58 1011.68 1011.84 1012.04 1012.20 1012.41 1013.09 1013.47 1013.33 1013.54
1011.81 1011.16 1010.58 1010.11 1009.97 1009.70 1009.21 1009.91 1010.10 1010.10 1009.76 1009.25 1008.82 1008.69 1008.69 1008.46 1008.52 1008.76 1009.01 1009.21 1008.96 1008.45 1008.13 1008.19 1008.68 1009.02 1009.20 1009.63 1009.96 1010.27 1010.67 1010.93 1010.56 1010.66 1011.38 1011.56 1012.12 1012.31 1012.51 1012.96 1013.38 1013.19 1013.00
1011.65 1011.24 1010.72 1010.09 1009.82 1009.87 1009.61 1009.52 1009.68 1009.95 1009.45 1008.87 1008.52 1008.31 1008.30 1008.12 1008.12 1008.34 1008.22 1008.30 1008.18 1007.93 1007.72 1007.75 1007.99 1008.27 1008.60 1008.89 1009.32 1009.45 1009.61 1009.74 1010.30 1010.72 1011.86 1011.97 1012.10 1012.76 1012.97 1012.87 1012.80 1012.89 1012.75
1011.56 1011.01 1010.82 1010.50 1009.96 1009.73 1009.47 1009.55 1009.50 1009.61 1009.31 1008.87 1008.25 1008.33 1007.94 1007.68 1008.13 1008.64 1008.77 1008.66 1007.57 1007.18 1006.97 1007.03 1007.19 1007.52 1007.90 1008.29 1008.74 1008.75 1008.74 1009.08 1009.31 1009.76 1010.24 1010.94 1012.02 1012.46 1012.80 1013.08 1012.77 1012.95 1012.64
1011.85 1011.08 1010.47 1010.21 1009.85 1009.09 1008.80 1009.06 1009.19 1009.12 1009.13 1008.64 1008.15 1007.77 1006.85 1007.20 1008.13 1008.52 1008.70 1008.59 1008.25 1007.76 1006.77 1006.38 1006.44 1006.69 1007.06 1007.48 1008.00 1008.08 1008.40 1008.67 1008.16 1008.66 1009.17 1009.42 1010.77 1011.83 1012.21 1012.48 1012.48 1012.51 1012.68
1011.55 1011.07 1010.76 1010.40 1009.75 1009.36 1008.64 1008.72 1009.03 1008.79 1008.60 1008.12 1007.45 1006.78 1006.84 1007.15 1007.51 1008.21 1008.54 1008.34 1008.06 1007.63 1006.90 1006.59 1006.23 1006.27 1006.53 1006.88 1007.27 1007.61 1008.10 1008.14 1007.60 1007.67 1007.64 1008.60 1009.30 1010.71 1011.43 1011.76 1011.94 1011.46 1012.46
1011.02 1010.64 1010.22 1009.88 1009.75 1009.36 1008.72 1008.64 1008.54 1008.25 1007.38 1007.42 1007.28 1007.02 1006.87 1007.18 1007.38 1008.39 1008.64 1008.44 1007.88 1007.08 1006.97 1006.45 1006.22 1006.07 1006.11 1006.42 1006.81 1007.44 1007.52 1007.38 1006.65 1006.68 1007.43 1008.43 1009.08 1009.86 1010.51 1011.01 1011.51 1011.68 1012.75
1010.27 1009.83 1009.56 1009.27 1009.02 1008.83 1008.57 1008.52 1008.38 1008.04 1008.22 1008.21 1007.96 1007.92 1007.81 1007.72 1008.43 1009.34 1009.42 1008.78 1008.23 1007.64 1007.17 1006.35 1006.40 1006.18 1006.13 1006.40 1006.48 1006.84 1007.00 1007.12 1007.23 1007.11 1007.39 1008.23 1008.95 1009.68 1010.26 1010.65 1011.23 1011.93 1012.80
1009.88 1009.58 1009.10 1009.09 1008.74 1008.54 1008.32 1008.42 1008.77 1008.91 1009.03 1009.51 1009.59 1009.56 1008.48 1008.81 1009.15 1009.31 1008.98 1008.67 1008.32 1007.89 1006.98 1006.55 1006.14 1006.54 1006.07 1006.09 1006.29 1006.46 1006.65 1006.71 1007.06 1007.38 1007.91 1008.39 1008.85 1009.56 1010.32 1010.92 1011.24 1011.75 1012.26
1009.61 1009.27 1008.90 1008.67 1008.11 1007.85 1007.71 1008.13 1007.80 1008.92 1009.35 1009.46 1009.35 1009.60 1009.68 1009.52 1009.18 1009.23 1009.02 1008.42 1007.84 1007.44 1006.81 1006.75 1006.08 1006.96 1006.30 1006.10 1006.21 1006.52 1006.69 1006.98 1007.28 1007.54 1007.75 1008.20 1009.06 1009.49 1010.09 1010.49 1010.88 1011.43 1012.46
1009.07 1009.07 1008.72 1008.06 1007.80 1007.54 1007.34 1007.23 1007.79 1008.53 1008.07 1008.07 1009.09 1009.02 1009.29 1009.26 1009.19 1009.14 1008.88 1008.33 1007.71 1007.28 1007.16 1006.82 1006.96 1006.71 1007.05 1006.48 1006.40 1006.83 1006.96 1007.28 1007.72 1007.87 1008.08 1008.45 1009.01 1009.51 1010.02 1010.48 1011.26 1011.67 1012.30
1008.93 1008.55 1008.58 1008.22 1007.67 1007.21 1006.82 1006.81 1006.72 1006.62 1007.01 1007.62 1007.88 1008.62 1008.55 1008.71 1008.71 1008.87 1008.70 1008.39 1008.13 1007.95 1007.55 1007.08 1007.47 1006.61 1007.01 1006.08 1006.62 1006.97 1007.07 1007.68 1007.92 1008.04 1008.25 1008.72 1008.94 1009.62 1010.29 1010.75 1011.16 1011.72 1012.05
1008.74 1008.62 1008.41 1007.78 1007.14 1006.97 1006.66 1006.52 1006.37 1006.23 1006.46 1007.08 1007.42 1007.59 1007.85 1008.23 1008.25 1008.36 1008.58 1008.51 1008.43 1008.33 1008.19 1007.86 1007.32 1007.00 1007.12 1006.37 1006.92 1007.23 1007.37 1008.08 1007.94 1008.23 1008.51 1008.67 1008.99 1009.30 1009.86 1010.26 1010.62 1011.25 1011.67
1008.60 1008.50 1007.97 1007.59 1006.81 1006.61 1006.50 1006.64 1006.45 1006.07 1006.41 1007.01 1007.72 1008.38 1008.70 1008.65 1008.82 1008.87 1008.83 1008.79 1008.68 1008.52 1008.50 1008.38 1007.85 1007.60 1007.08 1007.31 1007.46 1007.40 1007.56 1007.72 1007.84 1008.03 1008.19 1008.85 1009.08 1009.40 1009.72 1010.17 1010.46 1010.87 1011.19
1008.95 1008.56 1008.04 1007.13 1006.88 1006.82 1006.72 1006.92 1007.09 1007.04 1007.13 1007.32 1007.66 1008.84 1009.12 1009.13 1009.11 1009.24 1009.24 1009.17 1008.95 1008.95 1008.84 1008.68 1008.70 1008.69 1007.20 1007.53 1008.14 1008.21 1008.26 1008.41 1008.61 1008.56 1008.84 1009.13 1009.46 1009.80 1010.02 1010.28 1010.43 1010.78 1011.33
1008.50 1008.01 1007.72 1007.05 1006.71 1006.61 1006.61 1007.13 1007.14 1007.37 1006.94 1008.03 1008.54 1009.16 1009.55 1009.67 1009.88 1010.00 1009.79 1009.77 1009.58 1009.52 1009.22 1009.35 1009.14 1008.93 1008.64 1007.84 1008.50 1009.02 1008.82 1009.03 1009.41 1009.45 1009.58 1009.88 1010.03 1010.35 1010.57 1010.68 1010.83 1011.05 1011.39
1007.46 1007.35 1007.49 1006.84 1006.76 1006.99 1007.19 1007.79 1008.32 1008.54 1008.88 1009.45 1009.82 1010.15 1010.34 1010.50 1010.66 1010.63 1010.44 1010.29 1010.22 1010.03 1009.94 1009.76 1009.62 1009.41 1009.09 1009.75 1009.20 1009.09 1009.87 1010.25 1010.44 1010.59 1010.52 1010.18 1010.22 1010.55 1010.58 1010.84 1010.84 1011.12 1011.31
1007.73 1007.74 1007.63 1007.66 1007.57 1008.04 1008.39 1008.86 1009.33 1009.69 1010.07 1010.36 1010.65 1010.93 1011.10 1011.14 1011.14 1011.10 1010.90 1010.75 1010.51 1010.35 1010.35 1010.38 1010.15 1010.06 1010.44 1010.09 1009.97 1010.11 1011.35 1011.19 1010.67 1010.92 1010.79 1010.46 1010.35 1010.50 1010.64 1010.70 1010.95 1010.94 1011.05
1009.04 1008.87 1008.75 1008.96 1009.29 1009.56 1009.91 1010.26 1010.60 1010.86 1011.17 1011.40 1011.54 1011.62 1011.59 1011.59 1011.44 1011.29 1011.22 1011.06 1010.75 1010.69 1010.68 1010.60 1010.62 1010.90 1011.27 1011.07 1011.39 1011.96 1011.56 1011.13 1011.36 1011.28 1010.33 1010.19 1010.23 1010.55 1010.94 1011.11 1011.07 1011.19 1011.52
Thickness
5683 5686 5688 5691 5696 5697 5699 5703 5707 5712 5713 5714 5712 5711 5710 5708 5707 5705 5705 5705 5706 5707 5713 5716 5712 5709 5701 5704 5701 5703 5705 5702 5696 5705 5705 5695 5687 5682 5680 5679 5677 5678 5677
5668 5671 5673 5676 5680 5684 5684 5690 5691 5696 5701 5701 5702 5699 5700 5699 5696 5693 5696 5697 5696 5697 5702 5704 5699 5701 5699 5697 5697 5696 5698 5700 5694 5693 5692 5686 5678 5677 5676 5674 5673 5676 5676
5648 5653 5657 5658 5664 5667 5672 5676 5680 5680 5680 5682 5684 5689 5689 5692 5693 5692 5691 5690 5691 5690 5690 5689 5689 5687 5690 5686 5688 5687 5689 5689 5687 5688 5683 5680 5677 5673 5670 5670 5670 5670 5671
5626 5632 5639 5641 5645 5651 5656 5661 5668 5666 5667 5668 5671 5679 5683 5688 5686 5685 5685 5683 5684 5686 5680 5678 5677 5674 5682 5676 5676 5675 5682 5682 5677 5676 5677 5672 5669 5669 5670 5668 5666 5667 5670
5609 5614 5619 5629 5631 5633 5636 5642 5647 5654 5656 5657 5659 5665 5671 5675 5677 5676 5678 5677 5676 5674 5677 5674 5671 5662 5669 5672 5668 5671 5672 5671 5672 5667 5670 5668 5665 5664 5662 5668 5664 5667 5666
5593 5599 5604 5608 5616 5615 5618 5624 5630 5635 5642 5647 5648 5652 5655 5659 5664 5664 5664 5670 5672 5671 5671 5671 5666 5662 5657 5663 5662 5668 5670 5663 5662 5665 5665 5666 5663 5664 5662 5660 5659 5657 5656
5576 5583 5589 5593 5599 5601 5605 5608 5613 5617 5623 5630 5637 5641 5643 5648 5649 5652 5653 5656 5661 5667 5668 5669 5667 5667 5652 5657 5655 5654 5657 5657 5655 5656 5655 5656 5657 5660 5655 5648 5649 5649 5647
5561 5566 5571 5576 5583 5588 5587 5589 5594 5602 5611 5618 5623 5631 5635 5641 5641 5640 5643 5650 5658 5664 5667 5667 5662 5658 5654 5651 5649 5644 5645 5646 5648 5647 5648 5649 5650 5652 5648 5642 5639 5641 5639
5548 5553 5559 5563 5564 5569 5577 5572 5576 5580 5589 5600 5610 5616 5616 5627 5631 5632 5637 5642 5648 5657 5663 5663 5658 5655 5654 5648 5647 5644 5640 5642 5645 5643 5641 5641 5639 5638 5635 5633 5626 5629 5630
5536 5539 5543 5549 5554 5553 5556 5561 5562 5561 5570 5583 5592 5601 5608 5613 5616 5620 5630 5639 5645 5651 5654 5657 5655 5653 5649 5645 5645 5645 5642 5642 5638 5636 5629 5629 5628 5622 5623 5622 5623 5622 5626
5525 5528 5529 5532 5537 5542 5547 5546 5548 5547 5553 5561 5572 5580 5592 5603 5606 5606 5610 5623 5639 5647 5651 5652 5653 5648 5644 5640 5638 5641 5641 5640 5637 5636 5631 5625 5617 5615 5612 5610 5614 5615 5618
5509 5515 5519 5521 5524 5532 5538 5538 5537 5538 5537 5546 5553 5563 5580 5588 5587 5593 5597 5607 5616 5628 5641 5646 5649 5644 5641 5636 5634 5635 5631 5628 5636 5633 5630 5627 5618 5609 5607 5606 5607 5609 5610
5498 5501 5503 5505 5511 5516 5525 5526 5525 5529 5532 5538 5545 5555 5563 5569 5576 5578 5584 5593 5603 5615 5627 5632 5636 5637 5635 5633 5630 5627 5621 5623 5627 5626 5628 5623 5620 5610 5604 5602 5601 5607 5603
5490 5492 5495 5497 5497 5501 5509 5513 5517 5521 5532 5536 5539 5543 5550 5554 5562 5561 5567 5579 5593 5605 5612 5621 5626 5629 5632 5630 5627 5620 5618 5620 5624 5624 5621 5615 5609 5606 5602 5598 5594 5595 5593
5483 5485 5485 5488 5490 5494 5498 5502 5505 5510 5513 5521 5528 5529 5530 5535 5537 5532 5542 5558 5573 5585 5596 5610 5614 5619 5622 5622 5622 5615 5616 5614 5609 5607 5608 5604 5598 5595 5592 5592 5588 5588 5587
5477 5477 5480 5477 5479 5483 5488 5492 5487 5488 5490 5490 5493 5499 5513 5510 5510 5516 5529 5540 5552 5565 5584 5596 5604 5604 5610 5612 5614 5614 5613 5610 5606 5603 5596 5594 5594 5591 5586 5584 5584 5586 5587
5472 5472 5474 5474 5478 5479 5481 5481 5493 5480 5476 5480 5485 5489 5491 5496 5501 5504 5513 5527 5543 5555 5573 5581 5589 5583 5591 5598 5603 5602 5601 5598 5594 5593 5590 5585 5583 5583 5582 5581 5581 5578 5573
5468 5463 5466 5471 5472 5473 5475 5478 5474 5463 5482 5488 5476 5483 5485 5489 5493 5496 5502 5514 5533 5545 5556 5562 5566 5572 5565 5581 5587 5586 5588 5586 5583 5584 5585 5582 5577 5577 5575 5572 5573 5573 5571
5461 5462 5457 5458 5462 5465 5472 5471 5472 5475 5479 5478 5482 5478 5483 5485 5489 5491 5496 5507 5515 5524 5536 5543 5545 5560 5546 5566 5573 5576 5579 5577 5576 5577 5579 5575 5577 5572 5569 5569 5569 5563 5562
5455 5451 5448 5456 5459 5460 5465 5467 5468 5471 5474 5475 5476 5484 5484 5486 5491 5494 5492 5496 5502 5509 5516 5528 5540 5550 5548 5557 5560 5565 5570 5567 5572 5571 5572 5573 5574 5574 5572 5571 5570 5564 5560
5447 5445 5443 5450 5455 5457 5460 5459 5459 5465 5466 5466 5466 5465 5461 5475 5476 5480 5484 5486 5491 5499 5503 5510 5522 5530 5541 5545 5547 5555 5561 5565 5565 5567 5571 5566 5567 5568 5568 5566 5566 5561 5558
5432 5432 5435 5447 5449 5450 5453 5450 5449 5452 5453 5458 5461 5455 5453 5462 5468 5470 5473 5476 5483 5486 5493 5501 5507 5514 5533 5535 5534 5539 5545 5548 5550 5556 5557 5558 5558 5557 5556 5555 5556 5554 5549
5423 5426 5428 5439 5447 5448 5452 5447 5444 5444 5451 5448 5448 5446 5447 5451 5454 5456 5462 5466 5471 5473 5483 5485 5492 5503 5512 5522 5518 5519 5529 5532 5534 5541 5544 5544 5545 5543 5543 5543 5543 5542 5540
5420 5422 5425 5439 5444 5445 5445 5440 5436 5435 5435 5431 5431 5431 5435 5438 5441 5445 5450 5455 5459 5463 5468 5474 5480 5489 5501 5496 5506 5511 5509 5512 5516 5522 5527 5533 5535 5533 5535 5534 5537 5535 5534
5423 5423 5430 5433 5437 5435 5435 5432 5429 5426 5423 5423 5423 5423 5425 5428 5432 5436 5441 5445 5451 5456 5460 5463 5469 5476 5480 5486 5496 5495 5491 5498 5507 5511 5516 5522 5525 5526 5526 5527 5528 5530 5529
5423 5422 5424 5423 5423 5423 5423 5421 5421 5419 5416 5415 5415 5417 5420 5422 5425 5429 5433 5436 5442 5447 5451 5456 5461 5462 5465 5473 5477 5476 5481 5491 5494 5500 5510 5515 5518 5516 5514 5513 5514 5514 5512